SCP
0 0 0 0 0 0 0 0 0 0 0 0 0 0 0 0 0 0 0 0 0 0 0 0 0 0 0 0 0 0 0 0 0 0 0 0 0 0 0 0 0 0 0 0
0 0 0 0 0 0 0 0 0 0 0 0 0 0 0 0 0 0 0 0 0 0 0 0 0 0 0 0 0 0 0 0 0 0 0 0 0 0 0 0 0 0 0 0
0 0 0 0 0 0 0 0 0 0 0 0 0 0 0 0 0 0 0 0 0 0 0 0 0 0 0 0 0 0 0 0 0 0 0 0 0 0 0 0 0 0 0 0
0 0 0 0 0 0 0 0 0 0 0 0 0 0 0 0 0 0 0 0 0 0 0 0 0 0 0 0 0 0 0 0 0 0 0 0 0 0 0 0 0 0 0 0
0 0 0 0 0 0 0 0 0 0 0 0 0 0 0 0 0 0 0 0 0 0 0 0 0 0 0 0 0 0 0 0 0 0 0 0 0 0 0 0 0 0 0 0
0 0 0 0 0 0 0 0 0 0 0 0 0 0 0 0 0 0 0 0 0 0 0 0 0 0 0 0 0 0 0 0 0 0 0 0 0 0 0 0 0 0 0 0
0 0 0 0 0 0 0 0 0 0 0 0 0 0 0 0 0 0 0 0 0 0 0 0 0 0 0 0 0 0 0 0 0 0 0 0 0 0 0 0 0 0 0 0
0 0 0 0 0 0 0 0 0 0 0 0 0 0 0 0 0 0 0 0 0 0 0 0 0 0 0 0 0 0 0 0 0 0 0 0 0 0 0 0 0 0 0 0
0 0 0 0 0 0 0 0 0 0 0 0 0 0 0 0 0 0 0 0 0 0 0 0 0 0 0 0 0 0 0 0 0 0 0 0 0 0 0 0 0 0 0 0
0 0 0 0 0 0 0 0 0 0 0 0 0 0 0 0 0 0 0 0 0 0 0 0 0 0 0 0 0 0 0 0 0 0 0 0 0 0 0 0 0 0 0 0
0 0 0 0 0 0 0 0 0 0 0 0 0 0 0 0 0 0 0 0 0 0 0 0 0 0 0 0 0 0 0 0 0 0 0 0 0 0 0 0 0 0 0 0
0 0 0 0 0 0 0 0 0 0 0 0 0 0 0 0 0 0 0 0 0 0 0 0 0 0 0 0 0 0 0 0 0 0 0 0 0 0 0 0 0 0 0 0
0 0 0 0 0 0 0 0 0 0 0 0 0 0 0 0 0 0 0 0 0 0 0 0 0 0 0 0 0 0 0 0 0 0 0 0 0 0 0 0 0 0 0 0
0 -0 -0 0 0 0 0 0 0 0 0 0 0 0 0 0 0 0 0 0 0 0 0 0 0 0 0 0 0 0 0 0 0 0 0 0 0 0 0 0 0 0 0 0
-0 -0 -0 0 0 0 0 0 0 0 0 0 0 0 0 0 0 0 0 0 0 0 0 0 0 0 0 0 0 0 0 0 0 0 0 0 0 0 0 0 0 0 0 0
-0 -0 0 0 0 0 0 0 0 0 0 0 0 0 0 0 0 0 0 0 0 0 0 0 0 0 0 0 0 0 0 0 0 0 0 0 0 0 0 0 0 0 0 0
-0 0 0 0 0 0 0 0 0 0 0 0 0 0 0 0 0 0 0 0 0 0 0 0 0 0 0 0 0 0 0 0 0 0 0 0 0 0 0 0 0 0 0 0
0 0 0 0 0 0 0 0 0 0 0 0 0 0 0 0 0 0 0 0 0 0 0 0 0 0 0 0 0 0 0 0 0 0 0 0 0 0 0 0 0 0 0 0
0 0 0 0 0 0 0 0 0 0 0 0 0 0 0 0 0 0 0 0 0 0 0 0 0 0 0 0 0 0 0 0 0 0 0 0 0 0 0 0 0 0 0 0
0 0 0 0 0 0 0 0 0 0 0 0 0 0 0 0 0 0 0 0 0 0 0 0 0 0 0 0 0 0 0 0 0 0 0 0 0 0 0 0 0 0 0 0
0 0 0 0 0 0 0 0 0 0 0 0 0 0 0 0 0 0 0 0 0 0 0 0 0 0 0 0 0 0 0 0 0 0 0 0 0 0 0 0 0 0 0 0
0 0 0 0 0 0 0 0 0 0 0 0 0 0 0 0 0 0 0 0 0 0 0 0 0 0 0 0 0 0 0 0 0 0 0 0 0 0 0 0 0 0 0 0
0 0 0 0 0 0 0 0 0 0 0 0 0 0 0 0 0 0 0 0 0 0 0 0 0 0 0 0 0 0 0 0 0 0 0 0 0 0 0 0 0 0 0 0
0 0 0 0 0 0 0 0 0 0 0 0 0 0 0 0 0 0 0 0 0 0 0 0 0 0 0 0 0 0 0 0 0 0 0 0 0 0 0 0 0 0 0 0
0 0 0 0 0 0 0 0 0 0 0 0 0 0 0 0 0 0 0 0 0 0 0 0 0 0 0 0 0 0 0 0 0 0 0 0 0 0 0 0 0 0 0 0
0 0 0 0 0 0 0 0 0 0 0 0 0 0 0 0 0 0 0 0 0 0 0 0 0 0 0 0 0 0 0 0 0 0 0 0 0 0 0 0 0 0 0 0
0 0 0 0 0 0 0 0 0 0 0 0 0 0 0 0 0 0 0 0 0 0 0 0 0 0 0 0 0 0 0 0 0 0 0 0 0 0 0 0 0 0 0 0
Wind_Speed
7 7 6 8 9 10 11 11 10 10 11 11 8 7 6 6 5 4 4 3 3 4 4 3 4 4 4 4 4 4 4 5 5 5 4 4 5 5 4 4 4 4 4 5
5 5 7 10 12 12 13 13 14 14 14 9 6 5 6 6 5 5 5 5 5 5 5 4 4 4 4 4 4 4 5 5 5 5 4 4 5 4 4 4 4 4 5 5
4 3 5 9 9 10 9 8 9 11 9 4 5 6 7 6 6 6 6 5 5 6 5 5 5 5 5 5 5 5 5 5 5 5 5 5 5 4 4 5 5 5 5 5
3 2 7 2 1 4 7 8 8 9 8 7 7 7 7 6 6 6 6 6 6 5 5 5 5 5 5 4 5 5 5 5 5 5 5 5 5 5 5 5 5 5 5 6
3 5 9 4 1 3 5 7 6 8 8 7 5 6 5 4 4 6 6 7 6 5 5 5 4 4 4 4 4 4 5 5 5 5 5 5 5 5 5 5 5 5 5 6
4 5 7 2 1 1 3 5 2 5 7 5 4 6 4 3 5 6 6 5 5 5 4 4 4 3 4 5 5 5 5 6 5 5 5 6 6 5 5 5 5 5 6 6
7 7 8 1 1 3 4 3 2 4 5 5 6 7 6 5 6 6 5 5 5 4 4 4 3 3 5 5 6 6 5 5 5 5 6 6 6 5 5 5 5 5 6 6
5 7 7 3 4 5 3 3 4 5 5 7 8 7 7 6 6 6 5 5 4 4 4 4 3 3 5 6 5 5 5 5 5 5 5 5 5 5 5 5 5 5 5 5
8 7 2 4 5 4 3 5 6 6 6 7 8 8 7 7 6 6 5 4 4 4 4 4 3 4 5 5 5 5 5 5 5 5 5 4 5 5 4 4 4 4 4 5
8 10 8 8 8 7 7 7 7 7 7 7 8 8 7 6 6 5 5 4 3 4 4 4 4 5 5 5 5 5 5 5 4 4 4 4 4 4 4 4 4 4 4 5
10 9 8 8 9 8 7 7 7 7 7 7 7 8 7 6 6 5 5 4 4 4 5 5 5 5 5 4 4 5 5 5 4 4 4 4 4 4 4 5 5 5 4 5
9 6 6 7 5 5 6 7 7 7 7 6 6 7 7 6 5 5 5 4 4 5 5 5 5 5 5 4 4 4 4 4 3 3 3 3 3 4 5 6 7 7 7 7
9 6 7 8 7 6 7 7 7 7 7 7 6 6 6 6 5 5 5 5 5 5 5 5 5 5 5 4 4 4 4 4 3 3 3 3 3 3 4 4 5 6 7 7
9 7 8 8 7 6 6 7 6 6 6 6 6 6 5 5 5 5 6 5 4 4 5 5 5 5 4 4 4 4 4 4 4 3 3 3 3 3 3 4 4 3 5 7
9 9 9 7 6 6 5 5 5 6 6 6 5 5 5 5 6 6 5 4 4 4 4 4 5 5 4 3 4 4 3 3 3 3 3 3 3 3 3 4 4 4 3 4
5 6 7 8 8 7 6 6 6 7 6 6 5 5 5 5 5 5 4 3 4 5 4 4 5 4 3 3 4 3 3 4 3 3 3 3 3 3 3 3 3 3 3 3
6 7 7 7 8 7 6 6 7 7 6 6 6 5 4 4 4 4 4 3 4 5 5 5 5 4 3 3 3 3 2 2 3 3 2 2 2 3 3 3 3 4 3 3
9 8 7 7 7 7 7 6 6 6 6 5 4 4 4 4 5 5 4 3 4 4 5 4 4 3 3 3 3 2 2 2 2 2 2 2 3 3 3 3 4 4 4 3
6 7 6 6 6 6 6 6 6 5 5 4 4 5 5 5 5 4 3 3 4 5 4 3 4 3 3 3 2 2 2 2 2 2 2 3 3 3 3 3 3 4 3 3
4 4 4 4 4 4 5 5 4 4 4 4 4 4 4 5 4 3 3 4 4 4 3 3 3 3 3 3 3 2 2 2 2 2 2 2 3 3 3 3 3 3 3 3
4 4 4 4 3 3 4 4 3 4 3 3 4 5 4 4 3 3 3 4 3 3 3 4 3 3 3 2 3 2 2 2 2 2 2 3 3 3 3 3 3 3 3 3
3 3 3 3 3 3 3 2 3 3 3 3 3 3 3 3 3 3 4 4 3 3 3 2 2 3 3 3 2 2 2 2 2 2 2 3 3 3 3 3 3 3 3 3
3 3 3 3 3 2 2 2 2 2 3 3 3 3 3 3 2 3 3 2 2 4 3 2 3 4 4 2 2 2 2 3 2 2 2 3 3 3 3 3 3 3 3 3
2 2 2 1 1 1 2 3 2 2 2 3 3 3 3 2 3 3 3 3 4 4 3 3 4 4 3 1 1 2 2 2 2 2 2 2 2 3 3 3 3 3 3 3
2 2 1 2 2 3 3 2 2 2 2 2 2 2 2 2 3 2 2 3 3 3 3 3 4 3 2 2 2 2 2 2 2 2 2 2 2 3 3 3 3 3 3 3
2 2 2 3 2 2 2 2 2 2 2 2 2 2 1 1 2 2 2 2 3 3 2 2 2 2 2 2 2 2 2 2 3 3 3 2 3 3 3 3 3 3 3 3
1 1 1 2 2 2 2 2 2 2 2 2 2 2 1 1 1 2 2 2 2 2 2 2 2 2 2 2 2 2 2 2 2 2 2 2 2 2 2 3 3 3 2 2
Wind_Direction
273 275 258 257 254 240 232 239 250 262 263 272 282 286 285 283 288 292 291 293 295 291 290 290 287 284 280 275 268 261 255 251 253 257 255 255 256 258 255 253 254 254 254 255
269 263 262 264 255 243 241 244 248 262 269 275 282 279 278 280 278 281 290 284 284 285 284 283 281 280 278 275 269 260 256 255 257 255 251 251 258 255 253 253 254 252 253 255
258 299 280 257 241 229 227 230 236 247 262 275 279 274 280 286 283 282 286 286 281 277 275 278 279 277 274 277 273 259 256 256 253 250 249 252 251 248 251 253 252 250 252 254
271 268 245 249 66 226 234 242 239 259 275 271 276 287 285 280 278 286 289 288 286 281 276 277 276 273 271 271 265 259 260 259 256 254 254 252 249 248 251 251 250 252 254 256
238 257 269 261 217 207 230 256 237 251 269 281 301 299 277 273 282 288 290 291 291 286 278 272 271 274 275 271 266 264 264 264 262 257 253 252 251 252 253 254 253 254 255 256
223 249 257 278 96 189 223 261 221 241 260 275 290 283 290 299 293 291 292 292 291 288 283 269 268 270 265 265 263 262 265 266 263 259 253 252 252 253 252 251 253 255 255 256
229 247 264 283 127 176 228 296 336 263 264 259 259 277 307 301 293 289 291 294 292 285 281 282 282 269 263 262 263 270 271 269 265 259 256 255 255 251 250 249 253 254 257 258
209 230 249 143 161 211 278 326 297 285 278 270 272 285 291 289 289 291 294 294 293 288 288 290 286 278 275 274 279 280 274 269 265 261 258 253 252 251 249 247 249 253 258 263
215 237 291 193 225 257 290 283 285 284 282 279 278 281 285 284 284 285 284 287 290 284 287 290 285 277 277 283 289 281 272 269 266 262 256 252 248 246 245 242 246 251 255 261
253 257 258 252 256 263 266 271 279 283 282 278 275 279 279 278 279 280 279 278 280 277 279 284 284 280 277 283 284 275 271 272 269 263 258 253 248 242 240 239 244 250 257 264
252 267 278 256 245 260 270 276 284 286 281 274 272 274 274 276 276 276 278 276 270 268 274 282 287 286 287 284 279 275 274 273 272 266 264 256 251 250 251 252 251 252 254 256
243 240 242 264 265 259 266 274 275 280 285 280 266 266 270 270 271 272 275 272 268 268 272 280 285 286 290 287 276 273 274 274 269 266 266 262 261 267 254 260 271 268 270 269
250 258 258 274 275 264 268 273 276 274 272 277 274 264 265 269 272 270 271 267 264 268 273 278 282 285 287 284 274 268 272 279 276 269 267 266 265 268 280 276 268 266 268 271
246 257 265 261 264 268 269 274 277 276 272 267 267 266 263 266 267 265 268 267 267 271 274 276 278 281 287 283 274 271 273 272 273 271 269 267 266 269 273 280 287 285 276 275
242 241 251 265 270 270 266 265 269 272 274 271 263 258 258 259 262 268 273 270 270 270 272 273 276 283 290 283 276 274 273 274 275 275 272 272 272 271 270 272 277 287 295 290
251 248 247 250 256 261 264 261 263 270 273 271 267 264 263 264 269 274 270 261 261 267 271 272 276 285 287 280 276 272 269 277 282 278 273 273 273 272 273 276 278 280 283 292
239 248 246 252 256 258 256 255 258 263 265 263 265 268 268 271 274 274 270 265 262 268 272 271 278 286 280 273 271 271 274 275 277 277 274 274 274 275 278 278 277 281 286 290
238 247 246 247 250 254 259 258 256 256 257 262 265 258 253 255 264 272 276 280 275 276 275 275 280 283 277 272 267 269 270 275 275 276 278 278 279 277 278 278 281 285 293 298
243 246 251 252 250 247 253 258 259 257 257 254 250 250 251 254 262 269 274 275 277 284 290 289 288 281 278 278 274 261 267 279 281 280 280 284 285 279 278 280 284 288 293 299
248 250 252 256 253 247 252 260 259 257 253 242 243 251 254 257 257 258 262 264 266 279 294 293 282 276 274 269 271 265 264 271 278 283 284 282 285 286 284 283 284 288 292 294
245 245 246 248 253 254 252 253 249 254 255 234 234 244 254 262 256 249 256 271 276 281 280 276 274 274 272 270 264 261 260 265 270 274 278 282 285 287 288 290 289 289 291 292
243 241 245 248 251 263 267 260 254 254 254 243 241 245 251 259 258 254 247 260 281 290 287 273 273 275 276 274 262 257 258 259 263 267 270 273 278 282 286 291 291 291 291 291
240 241 245 248 252 268 287 273 258 249 248 247 244 243 247 257 256 259 273 271 279 281 281 275 283 283 279 273 263 259 261 261 259 260 263 266 270 274 279 285 288 289 291 292
238 239 247 259 255 253 267 272 262 259 257 258 254 251 251 260 264 255 270 284 287 282 277 284 287 283 283 273 260 260 264 267 267 264 260 261 266 270 274 279 283 288 290 292
231 229 220 214 228 246 260 275 277 268 260 264 271 264 248 249 261 274 276 274 277 281 282 286 289 286 276 264 258 261 265 268 271 269 262 263 267 271 276 280 281 285 287 289
215 225 231 239 251 261 259 249 254 259 258 269 279 275 268 267 268 274 273 276 279 285 288 287 283 278 271 271 274 275 274 277 277 272 269 266 267 271 277 282 287 284 285 288
220 225 233 250 250 242 241 239 245 251 248 252 273 276 270 269 269 277 279 280 281 280 280 282 280 276 277 277 278 279 276 272 269 268 268 265 265 266 272 277 281 283 284 285